When you browse on this site, cookies collect data to enhance your experience and personalize the content and advertising you see.
Visit our Privacy Policy to learn more. By continuing to use the site, you agree to this use of cookies and data.
  • Em Portugal
  • Lista de países
  • Para 7 dias
  • Temperatura da água
  • Mapas de satélite
  • Mapa do tempo
  • Widgets de tempo
  • user-avatar
    Iniciar Sessão

    Previsão horária em Bolshie Filipkovichi

    Hoje, 18 Abril, Quinta-feira

    Tempo Temperatura Precipitação Vento Pressão Humidade
    00:00 +7°C° 0 mm 1 m/s 759 mmHg 76%
    01:00 +7°C° 0 mm 1 m/s 759 mmHg 77%
    02:00 +5°C° 0 mm 0 m/s 759 mmHg 78%
    03:00 +5°C° 0 mm 0 m/s 759 mmHg 79%
    04:00 +5°C° 0 mm 0 m/s 759 mmHg 80%
    05:00 +4°C° 0 mm 0 m/s 759 mmHg 81%
    06:00 +7°C° 0 mm 1 m/s 759 mmHg 75%
    07:00 +9°C° 0 mm 1 m/s 759 mmHg 69%
    08:00 +10°C° 0 mm 2 m/s 759 mmHg 62%
    09:00 +12°C° 0 mm 2 m/s 759 mmHg 55%
    10:00 +13°C° 0 mm 3 m/s 759 mmHg 49%
    11:00 +14°C° 0 mm 3 m/s 759 mmHg 42%
    12:00 +16°C° 0 mm 3 m/s 758 mmHg 40%
    13:00 +15°C° 0 mm 4 m/s 757 mmHg 38%
    14:00 +17°C° 0 mm 4 m/s 757 mmHg 36%
    15:00 +17°C° 0 mm 4 m/s 757 mmHg 37%
    16:00 +16°C° 0 mm 5 m/s 756 mmHg 38%
    17:00 +15°C° 0 mm 5 m/s 756 mmHg 39%
    18:00 +14°C° 0 mm 5 m/s 756 mmHg 43%
    19:00 +12°C° 0 mm 5 m/s 756 mmHg 48%
    20:00 +10°C° 0 mm 4 m/s 756 mmHg 53%
    21:00 +8°C° 0 mm 4 m/s 757 mmHg 56%
    22:00 +7°C° 0 mm 4 m/s 757 mmHg 59%
    23:00 +6°C° 0 mm 4 m/s 757 mmHg 61%

    Amanhã, 19 Abril, Sexta-feira

    Tempo Temperatura Precipitação Vento Pressão Humidade
    00:00 +5°C° 0 mm 4 m/s 758 mmHg 63%
    01:00 +5°C° 0 mm 4 m/s 758 mmHg 64%
    02:00 +5°C° 0 mm 4 m/s 758 mmHg 65%
    03:00 +4°C° 0 mm 4 m/s 758 mmHg 68%
    04:00 +4°C° 0 mm 4 m/s 758 mmHg 70%
    05:00 +3°C° 0 mm 4 m/s 759 mmHg 73%
    06:00 +4°C° 0 mm 4 m/s 759 mmHg 67%
    07:00 +6°C° 0 mm 5 m/s 759 mmHg 62%
    08:00 +7°C° 0 mm 5 m/s 759 mmHg 57%
    09:00 +8°C° 0 mm 5 m/s 759 mmHg 52%
    10:00 +10°C° 0 mm 5 m/s 759 mmHg 46%
    11:00 +12°C° 0 mm 5 m/s 759 mmHg 40%
    12:00 +12°C° 0 mm 5 m/s 759 mmHg 39%
    13:00 +13°C° 0 mm 5 m/s 759 mmHg 38%
    14:00 +13°C° 0 mm 4 m/s 759 mmHg 37%
    15:00 +13°C° 0 mm 4 m/s 759 mmHg 38%
    16:00 +13°C° 0 mm 4 m/s 759 mmHg 39%
    17:00 +13°C° 0 mm 4 m/s 759 mmHg 39%
    18:00 +11°C° 0 mm 3 m/s 759 mmHg 43%
    19:00 +10°C° 0 mm 2 m/s 759 mmHg 47%
    20:00 +9°C° 0 mm 1 m/s 759 mmHg 51%
    21:00 +9°C° 0 mm 1 m/s 759 mmHg 53%
    22:00 +8°C° 0 mm 1 m/s 759 mmHg 55%
    23:00 +6°C° 0 mm 0 m/s 759 mmHg 57%

    Depois de amanhã, 20 Abril, Sábado

    Tempo Temperatura Precipitação Vento Pressão Humidade
    00:00 +6°C° 0 mm 0 m/s 759 mmHg 58%
    01:00 +6°C° 0 mm 0 m/s 759 mmHg 59%
    02:00 +6°C° 0 mm 1 m/s 758 mmHg 59%
    03:00 +6°C° 0 mm 1 m/s 758 mmHg 61%
    04:00 +6°C° 0 mm 1 m/s 758 mmHg 62%
    05:00 +6°C° 0 mm 1 m/s 758 mmHg 63%
    06:00 +7°C° 0 mm 1 m/s 758 mmHg 59%
    07:00 +8°C° 0 mm 2 m/s 758 mmHg 56%
    08:00 +9°C° 0 mm 2 m/s 758 mmHg 53%
    09:00 +12°C° 0 mm 2 m/s 758 mmHg 49%
    10:00 +13°C° 0 mm 2 m/s 757 mmHg 46%
    11:00 +14°C° 0 mm 2 m/s 757 mmHg 43%
    12:00 +14°C° 0 mm 2 m/s 757 mmHg 44%
    13:00 +13°C° 0 mm 3 m/s 757 mmHg 46%
    14:00 +13°C° 0 mm 3 m/s 756 mmHg 47%
    15:00 +14°C° 0 mm 2 m/s 756 mmHg 48%
    16:00 +14°C° 0 mm 2 m/s 756 mmHg 50%
    17:00 +14°C° 0 mm 2 m/s 755 mmHg 52%
    18:00 +12°C° 0 mm 1 m/s 755 mmHg 57%
    19:00 +11°C° 0 mm 1 m/s 755 mmHg 63%
    20:00 +10°C° 0 mm 1 m/s 755 mmHg 69%
    21:00 +9°C° 0 mm 0 m/s 755 mmHg 73%
    22:00 +8°C° 0 mm 0 m/s 755 mmHg 76%
    23:00 +8°C° 0 mm 0 m/s 755 mmHg 80%

    21 Abril, Domingo

    Tempo Temperatura Precipitação Vento Pressão Humidade
    00:00 +7°C° 0.1 mm 0 m/s 755 mmHg 82%
    01:00 +7°C° 0.1 mm 0 m/s 755 mmHg 85%
    02:00 +8°C° 0.1 mm 1 m/s 755 mmHg 87%
    03:00 +7°C° 0.2 mm 1 m/s 754 mmHg 88%
    04:00 +7°C° 0.2 mm 1 m/s 754 mmHg 89%
    05:00 +7°C° 0.2 mm 1 m/s 754 mmHg 91%
    06:00 +7°C° 0.5 mm 1 m/s 754 mmHg 88%
    07:00 +7°C° 0.5 mm 2 m/s 754 mmHg 86%
    08:00 +8°C° 0.5 mm 2 m/s 754 mmHg 83%
    09:00 +8°C° 1.2 mm 2 m/s 754 mmHg 82%
    10:00 +8°C° 1.2 mm 3 m/s 754 mmHg 80%
    11:00 +8°C° 1.2 mm 3 m/s 754 mmHg 78%
    12:00 +8°C° 0.5 mm 4 m/s 754 mmHg 74%
    13:00 +10°C° 0.5 mm 4 m/s 754 mmHg 70%
    14:00 +11°C° 0.5 mm 4 m/s 754 mmHg 66%
    15:00 +12°C° 0.4 mm 4 m/s 754 mmHg 63%
    16:00 +12°C° 0.4 mm 4 m/s 754 mmHg 60%
    17:00 +13°C° 0.4 mm 4 m/s 754 mmHg 57%
    18:00 +12°C° 0.1 mm 4 m/s 755 mmHg 61%
    19:00 +10°C° 0.1 mm 4 m/s 755 mmHg 64%
    20:00 +8°C° 0.1 mm 4 m/s 755 mmHg 68%
    21:00 +7°C° 0 mm 4 m/s 756 mmHg 68%
    22:00 +7°C° 0 mm 4 m/s 756 mmHg 67%
    23:00 +6°C° 0 mm 4 m/s 756 mmHg 67%

    22 Abril, Segunda-feira

    Tempo Temperatura Precipitação Vento Pressão Humidade
    00:00 +6°C° 0 mm 4 m/s 756 mmHg 68%
    01:00 +5°C° 0 mm 3 m/s 757 mmHg 69%
    02:00 +5°C° 0 mm 3 m/s 757 mmHg 71%
    03:00 +4°C° 0 mm 3 m/s 757 mmHg 72%
    04:00 +4°C° 0 mm 3 m/s 757 mmHg 74%
    05:00 +4°C° 0 mm 3 m/s 757 mmHg 75%
    06:00 +5°C° 0 mm 3 m/s 758 mmHg 69%
    07:00 +7°C° 0 mm 4 m/s 758 mmHg 63%
    08:00 +10°C° 0 mm 4 m/s 759 mmHg 56%
    09:00 +11°C° 0 mm 4 m/s 759 mmHg 50%
    10:00 +12°C° 0 mm 4 m/s 759 mmHg 44%
    11:00 +13°C° 0 mm 4 m/s 759 mmHg 38%
    12:00 +13°C° 0 mm 4 m/s 759 mmHg 38%
    13:00 +13°C° 0 mm 4 m/s 759 mmHg 38%
    14:00 +14°C° 0 mm 4 m/s 759 mmHg 38%
    15:00 +14°C° 0 mm 4 m/s 759 mmHg 39%
    16:00 +13°C° 0 mm 3 m/s 759 mmHg 40%
    17:00 +13°C° 0 mm 3 m/s 759 mmHg 41%
    18:00 +12°C° 0 mm 3 m/s 759 mmHg 47%
    19:00 +10°C° 0 mm 2 m/s 760 mmHg 52%
    20:00 +9°C° 0 mm 2 m/s 760 mmHg 58%
    21:00 +8°C° 0 mm 2 m/s 760 mmHg 59%
    22:00 +8°C° 0 mm 2 m/s 761 mmHg 61%
    23:00 +7°C° 0 mm 2 m/s 761 mmHg 63%

    23 Abril, Terça-feira

    Tempo Temperatura Precipitação Vento Pressão Humidade
    00:00 +7°C° 0 mm 2 m/s 761 mmHg 64%
    01:00 +6°C° 0 mm 2 m/s 761 mmHg 65%
    02:00 +6°C° 0 mm 2 m/s 761 mmHg 65%
    03:00 +6°C° 0 mm 2 m/s 762 mmHg 67%
    04:00 +5°C° 0 mm 2 m/s 762 mmHg 68%
    05:00 +5°C° 0 mm 2 m/s 762 mmHg 70%
    06:00 +7°C° 0 mm 2 m/s 762 mmHg 65%
    07:00 +9°C° 0 mm 2 m/s 762 mmHg 60%
    08:00 +12°C° 0 mm 2 m/s 762 mmHg 55%
    09:00 +12°C° 0 mm 3 m/s 762 mmHg 49%
    10:00 +14°C° 0 mm 3 m/s 762 mmHg 43%
    11:00 +15°C° 0 mm 4 m/s 762 mmHg 36%
    12:00 +15°C° 0 mm 4 m/s 762 mmHg 37%
    13:00 +16°C° 0 mm 3 m/s 762 mmHg 37%
    14:00 +16°C° 0 mm 3 m/s 762 mmHg 37%
    15:00 +16°C° 0 mm 3 m/s 761 mmHg 38%
    16:00 +16°C° 0 mm 3 m/s 761 mmHg 39%
    17:00 +16°C° 0 mm 3 m/s 761 mmHg 40%
    18:00 +13°C° 0 mm 3 m/s 761 mmHg 46%
    19:00 +11°C° 0 mm 3 m/s 761 mmHg 52%
    20:00 +10°C° 0 mm 3 m/s 761 mmHg 58%
    21:00 +9°C° 0 mm 3 m/s 761 mmHg 59%
    22:00 +8°C° 0 mm 3 m/s 761 mmHg 61%
    23:00 +8°C° 0 mm 2 m/s 761 mmHg 62%
    Mostrar mais